Home   Weather   Amsterdam   Past weeks
Flag for Netherlands

Past Weather in Amsterdam, Netherlands — Yesterday and Last 2 Weeks

Now
50 °F

Broken clouds.


Feels Like: 44 °F
Forecast: 46 / 35 °F
Wind: 18 mph from West

Location: Amsterdam Schiphol Airport

Current Time: Apr 2, 2020 at 6:21:29 pm

Latest Report: Apr 2, 2020 at 5:25 pm


Visibility: N/A

Pressure: 29.86 "Hg

Humidity: 71%

Dew Point: 41 °F

Location of AmsterdamLocation

Past Weather in Amsterdam — Graph

°F

Amsterdam Temperature Yesterday

Maximum temperature yesterday: 46 °F (at 11:55 am)
Minimum temperature yesterday: 30 °F (at 3:55 am)
Average temperature yesterday: 39 °F

High & Low Weather Summary for the Past Weeks

 TemperatureHumidityPressure
High55 °F (Mar 27, 1:25 pm)100% (Mar 19, 2:25 am)30.60 "Hg (Mar 19, 2:25 am)
Low28 °F (Mar 30, 2:25 am)29% (Mar 24, 6:55 pm)29.86 "Hg (Apr 2, 3:55 pm)
Average43 °F63%30.33 "Hg
* Reported Mar 18 3:25 pm — Apr 2 4:55 pm, Amsterdam. Weather by CustomWeather, © 2020

Note: Actual official high and low records may vary slightly from our data, if they occured in-between our weather recording intervals... More about our weather records

Amsterdam Weather History for the Previous 24 Hours

Scroll right to see more
 ConditionsComfort  
Time TempWeatherWind HumidityBarometerVisibility
4:55 pm
Thu, Apr 2
50 °FPartly sunny.21 mph71%29.86 "HgN/A
4:25 pm50 °FPartly sunny.22 mph71%29.86 "HgN/A
3:55 pm52 °FScattered clouds.20 mph67%29.86 "HgN/A
3:25 pm50 °FPartly sunny.20 mph67%29.89 "HgN/A
2:55 pm48 °FPartly sunny.22 mph66%29.89 "HgN/A
2:25 pm48 °FPartly sunny.21 mph66%29.89 "HgN/A
1:55 pm50 °FPartly sunny.21 mph62%29.89 "HgN/A
1:25 pm50 °FPartly sunny.22 mph58%29.92 "HgN/A
12:55 pm54 °FPartly sunny.20 mph51%29.92 "HgN/A
12:25 pm52 °FPassing clouds.18 mph54%29.92 "HgN/A
11:55 am52 °FPassing clouds.16 mph58%29.92 "HgN/A
11:25 am50 °FPassing clouds.16 mph62%29.92 "HgN/A
10:55 am50 °FPassing clouds.15 mph62%29.95 "HgN/A
10:25 am48 °FPassing clouds.12 mph71%29.92 "HgN/A
9:55 am48 °FPassing clouds.14 mph71%29.95 "HgN/A
9:25 am45 °FPassing clouds.12 mph81%29.95 "HgN/A
8:55 am45 °FPartly sunny.9 mph76%29.95 "HgN/A
8:25 am43 °FPartly sunny.12 mph76%29.95 "HgN/A
7:55 am43 °FPartly sunny.12 mph76%29.95 "HgN/A
7:25 am41 °FPartly sunny.8 mph81%29.95 "HgN/A
6:55 am41 °FPassing clouds.7 mph81%29.98 "HgN/A
6:25 am41 °FPassing clouds.7 mph81%29.98 "HgN/A
5:55 am41 °FPassing clouds.6 mph81%29.98 "HgN/A
5:25 am41 °FPassing clouds.6 mph81%29.98 "HgN/A
4:55 am41 °FPassing clouds.7 mph81%29.98 "HgN/A
4:25 am39 °FPassing clouds.3 mph87%30.01 "HgN/A
3:55 am39 °FPassing clouds.6 mph87%30.01 "HgN/A
3:25 am39 °FPassing clouds.5 mph87%30.01 "HgN/A
2:55 am39 °FPassing clouds.7 mph87%30.01 "HgN/A
2:25 am39 °FPassing clouds.6 mph87%30.04 "HgN/A
1:55 am39 °FPassing clouds.5 mph87%30.04 "HgN/A
1:25 am41 °FPassing clouds.6 mph81%30.04 "HgN/A
12:55 am41 °FPassing clouds.6 mph81%30.04 "HgN/A
12:25 am41 °FPassing clouds.6 mph81%30.07 "HgN/A
11:55 pm
Wed, Apr 1
41 °FPassing clouds.5 mph81%30.07 "HgN/A
11:25 pm41 °FPassing clouds.5 mph76%30.07 "HgN/A
10:55 pm41 °FPassing clouds.3 mph76%30.07 "HgN/A
10:25 pm41 °FPassing clouds.8 mph81%30.07 "HgN/A
9:55 pm41 °FPassing clouds.5 mph81%30.09 "HgN/A
9:25 pm41 °FPassing clouds.6 mph81%30.09 "HgN/A
8:55 pm41 °FSprinkles. Passing clouds.7 mph81%30.09 "HgN/A
8:25 pm43 °FSprinkles. Passing clouds.8 mph76%30.09 "HgN/A
7:55 pm43 °FPartly sunny.8 mph76%30.09 "HgN/A
7:25 pm43 °FPassing clouds.10 mph76%30.09 "HgN/A
6:55 pm43 °FPassing clouds.10 mph76%30.09 "HgN/A
6:25 pm45 °FPartly sunny.8 mph66%30.09 "HgN/A
Weather by CustomWeather, © 2020

See weather overview

Advertising